{"data":{"norad_id":52123,"intl_designator":"2022-029AM","name":"STARLINK-3725","alt_names":[],"object_type":"PAYLOAD","status":"ACTIVE","operator":null,"country":"US","launch_date":"2022-03-19","launch_site_code":"AFETR","launch_vehicle":null,"mission":null,"orbit_class":"UNKNOWN","rcs_meters":null,"size_class":null,"mass_kg":null,"dimensions":null,"purposes":["comms"],"wikipedia_slug":null,"has_3d_model":false,"image_url":null,"decayed_at":null,"tle_current":{"epoch":"2026-09-19T13:51:46.584864Z","epoch_age_seconds":135900,"freshness":"FRESH","line1":"1 52123U 22029AM  26262.57762251  .00001508  00000+0  54136-4 0  9997","line2":"2 52123  53.1588 273.8677 0001053  76.0803 284.0317 15.35401408250269","mean_motion":15.35401408,"eccentricity":0.0001053,"inclination_deg":53.1588,"raan_deg":273.8677,"arg_perigee_deg":76.0803,"mean_anomaly_deg":284.0317,"bstar":5.4136e-5,"rev_number":25026,"period_min":93.786549399856,"perigee_km":459.00843518004,"apogee_km":460.44848964642,"semimajor_km":6837.8654624132,"source":"CELESTRAK","updated_at":"2026-09-20T09:00:39.990312Z"}}}